WZZ3BR LZIB-BKPR

Flight info

Callsign WZZ3BR
Flight time 1h 13m
Altitude 37000
Route VAMOG DCT BAREB DCT VIBOP DCT PODOB DCT ALELU DCT ARBER ARBER1D
Aircraft A21N/M-SDE1E2E3FGIJ1J4RWXY/LB1

Departure

Time 2026-05-04 13:03
Airport M. R. Štefánik Airport (LZIB)

Arrival

Time 2026-05-04 14:17
Airport Priština Adem Jashari International Airport (BKPR)
Time Latitude Longitude Altitude Speed Heading
2026-05-04 12:42 48.16889 17.20061 444 ft 0 kts 314°
2026-05-04 12:54 48.16883 17.20071 444 ft 2 kts 313°
2026-05-04 12:54 48.16873 17.20087 444 ft 2 kts 314°
2026-05-04 12:54 48.16862 17.20103 444 ft 2 kts 320°
2026-05-04 12:55 48.16848 17.20109 444 ft 2 kts 10°
2026-05-04 12:55 48.16835 17.20098 444 ft 2 kts 51°
2026-05-04 12:55 48.16830 17.20088 444 ft 1 kts 47°
2026-05-04 12:55 48.16829 17.20087 444 ft 0 kts 47°
2026-05-04 12:58 48.16831 17.20091 444 ft 1 kts 47°
2026-05-04 12:58 48.16839 17.20102 444 ft 1 kts 45°
2026-05-04 12:59 48.16851 17.20120 444 ft 3 kts 44°
2026-05-04 12:59 48.16875 17.20155 444 ft 6 kts 44°
2026-05-04 12:59 48.16912 17.20209 444 ft 8 kts 44°
2026-05-04 12:59 48.16961 17.20278 444 ft 11 kts 43°
2026-05-04 13:00 48.17021 17.20365 444 ft 12 kts 44°
2026-05-04 13:00 48.17091 17.20465 444 ft 14 kts 44°
2026-05-04 13:00 48.17160 17.20563 444 ft 12 kts 38°
2026-05-04 13:00 48.17239 17.20545 444 ft 12 kts 314°
2026-05-04 13:01 48.17301 17.20446 444 ft 13 kts 313°
2026-05-04 13:01 48.17367 17.20344 444 ft 13 kts 317°
2026-05-04 13:01 48.17453 17.20303 444 ft 13 kts
2026-05-04 13:01 48.17531 17.20371 444 ft 13 kts 45°
2026-05-04 13:02 48.17529 17.20461 444 ft 7 kts 134°
2026-05-04 13:02 48.17527 17.20464 444 ft 0 kts 134°
2026-05-04 13:02 48.17487 17.20527 444 ft 35 kts 135°
2026-05-04 13:02 48.17147 17.21052 444 ft 102 kts 134°
2026-05-04 13:03 48.16508 17.22043 444 ft 158 kts 135°
2026-05-04 13:03 48.15705 17.23242 882 ft 166 kts 136°
2026-05-04 13:03 48.14901 17.24493 1505 ft 169 kts 135°
2026-05-04 13:03 48.14101 17.25725 2198 ft 168 kts 135°
2026-05-04 13:04 48.13285 17.26998 2601 ft 177 kts 137°
2026-05-04 13:04 48.12378 17.28368 2897 ft 192 kts 137°
2026-05-04 13:04 48.11411 17.29815 3227 ft 205 kts 138°
2026-05-04 13:04 48.10348 17.31427 3410 ft 230 kts 136°
2026-05-04 13:05 48.09195 17.33247 3678 ft 252 kts 136°
2026-05-04 13:05 48.07946 17.35180 4261 ft 260 kts 137°
2026-05-04 13:05 48.06673 17.37082 4936 ft 264 kts 137°
2026-05-04 13:05 48.05384 17.39070 5675 ft 267 kts 136°
2026-05-04 13:06 48.04107 17.41064 6406 ft 270 kts 135°
2026-05-04 13:06 48.02822 17.43110 7129 ft 274 kts 136°
2026-05-04 13:06 48.01498 17.45162 7845 ft 277 kts 136°
2026-05-04 13:06 48.00147 17.47238 8572 ft 280 kts 136°
2026-05-04 13:07 47.98789 17.49322 9291 ft 283 kts 136°
2026-05-04 13:07 47.97414 17.51431 9992 ft 286 kts 136°
2026-05-04 13:07 47.96031 17.53550 10567 ft 293 kts 136°
2026-05-04 13:07 47.94566 17.55791 10960 ft 307 kts 136°
2026-05-04 13:08 47.93084 17.58058 11571 ft 311 kts 136°
2026-05-04 13:08 47.91579 17.60353 12236 ft 313 kts 137°
2026-05-04 13:08 47.89834 17.62340 12865 ft 314 kts 152°
2026-05-04 13:08 47.87828 17.63514 13495 ft 314 kts 166°
2026-05-04 13:09 47.85677 17.64191 14123 ft 317 kts 169°
2026-05-04 13:09 47.83516 17.64812 14699 ft 321 kts 169°
2026-05-04 13:09 47.81311 17.65449 15273 ft 325 kts 170°
2026-05-04 13:09 47.79084 17.66110 15844 ft 328 kts 169°
2026-05-04 13:10 47.76870 17.66911 16393 ft 332 kts 167°
2026-05-04 13:10 47.74635 17.67759 16922 ft 335 kts 167°
2026-05-04 13:10 47.72347 17.68630 17453 ft 339 kts 167°
2026-05-04 13:10 47.70062 17.69499 17970 ft 343 kts 167°
2026-05-04 13:11 47.67739 17.70384 18452 ft 346 kts 167°
2026-05-04 13:11 47.65425 17.71264 18960 ft 349 kts 167°
2026-05-04 13:11 47.63065 17.72161 19459 ft 352 kts 167°
2026-05-04 13:11 47.60702 17.73058 19932 ft 355 kts 167°
2026-05-04 13:12 47.58298 17.73969 20411 ft 358 kts 167°
2026-05-04 13:12 47.55893 17.74881 20864 ft 361 kts 167°
2026-05-04 13:12 47.53457 17.75804 21320 ft 364 kts 167°
2026-05-04 13:12 47.51018 17.76728 21762 ft 367 kts 167°
2026-05-04 13:13 47.48537 17.77666 22179 ft 371 kts 166°
2026-05-04 13:13 47.46029 17.78614 22599 ft 374 kts 166°
2026-05-04 13:13 47.43508 17.79566 23033 ft 377 kts 166°
2026-05-04 13:13 47.40946 17.80533 23448 ft 380 kts 166°
2026-05-04 13:14 47.38378 17.81501 23849 ft 382 kts 167°
2026-05-04 13:14 47.35813 17.82467 24243 ft 385 kts 167°
2026-05-04 13:14 47.33204 17.83448 24623 ft 388 kts 167°
2026-05-04 13:14 47.30577 17.84434 25002 ft 391 kts 166°
2026-05-04 13:15 47.27948 17.85420 25359 ft 394 kts 166°
2026-05-04 13:15 47.25295 17.86413 25706 ft 396 kts 166°
2026-05-04 13:15 47.22621 17.87414 26053 ft 399 kts 166°
2026-05-04 13:15 47.19922 17.88424 26388 ft 401 kts 166°
2026-05-04 13:16 47.17202 17.89440 26719 ft 404 kts 166°
2026-05-04 13:16 47.14483 17.90456 27041 ft 406 kts 166°
2026-05-04 13:16 47.11755 17.91474 27352 ft 409 kts 166°
2026-05-04 13:16 47.08997 17.92502 27660 ft 411 kts 166°
2026-05-04 13:17 47.06209 17.93539 27968 ft 414 kts 166°
2026-05-04 13:17 47.03422 17.94576 28276 ft 416 kts 166°
2026-05-04 13:17 47.00628 17.95613 28571 ft 418 kts 166°
2026-05-04 13:17 46.97800 17.96662 28875 ft 420 kts 166°
2026-05-04 13:18 46.94972 17.97710 29164 ft 423 kts 166°
2026-05-04 13:18 46.92103 17.98770 29452 ft 425 kts 166°
2026-05-04 13:18 46.89238 17.99829 29731 ft 428 kts 166°
2026-05-04 13:18 46.86342 18.00898 30009 ft 430 kts 166°
2026-05-04 13:19 46.83424 18.01974 30284 ft 432 kts 166°
2026-05-04 13:19 46.80500 18.03051 30557 ft 434 kts 166°
2026-05-04 13:19 46.77586 18.04123 30831 ft 436 kts 166°
2026-05-04 13:19 46.74648 18.05203 31094 ft 438 kts 166°
2026-05-04 13:20 46.71705 18.06284 31326 ft 441 kts 166°
2026-05-04 13:20 46.68686 18.07393 31558 ft 444 kts 166°
2026-05-04 13:20 46.65696 18.08488 31799 ft 446 kts 166°
2026-05-04 13:20 46.62699 18.09585 32045 ft 448 kts 166°
2026-05-04 13:21 46.59685 18.10687 32284 ft 450 kts 166°
2026-05-04 13:21 46.56634 18.11800 32521 ft 452 kts 166°
2026-05-04 13:21 46.53609 18.12903 32747 ft 454 kts 166°
2026-05-04 13:21 46.50542 18.14019 32963 ft 456 kts 166°
2026-05-04 13:22 46.47477 18.15135 33187 ft 457 kts 166°
2026-05-04 13:22 46.44376 18.16262 33483 ft 457 kts 166°
2026-05-04 13:22 46.41333 18.17367 33799 ft 457 kts 166°
2026-05-04 13:22 46.38236 18.18490 34113 ft 456 kts 166°
2026-05-04 13:23 46.35177 18.19599 34406 ft 456 kts 166°
2026-05-04 13:23 46.32125 18.20704 34677 ft 456 kts 166°
2026-05-04 13:23 46.29040 18.21819 34922 ft 456 kts 166°
2026-05-04 13:23 46.25975 18.22925 35174 ft 455 kts 166°
2026-05-04 13:24 46.22904 18.24033 35418 ft 455 kts 166°
2026-05-04 13:24 46.19846 18.25135 35614 ft 456 kts 166°
2026-05-04 13:24 46.16774 18.26239 35782 ft 457 kts 166°
2026-05-04 13:25 46.10623 18.28447 36137 ft 458 kts 166°
2026-05-04 13:25 46.07539 18.29553 36311 ft 459 kts 166°
2026-05-04 13:25 46.04404 18.30676 36479 ft 460 kts 166°
2026-05-04 13:25 46.01337 18.31774 36634 ft 460 kts 166°
2026-05-04 13:26 45.98195 18.32896 36826 ft 461 kts 166°
2026-05-04 13:26 45.95119 18.33994 37002 ft 461 kts 166°
2026-05-04 13:26 45.88868 18.36223 37073 ft 463 kts 166°
2026-05-04 13:27 45.82585 18.38461 37066 ft 464 kts 166°
2026-05-04 13:27 45.76320 18.40684 37065 ft 464 kts 166°
2026-05-04 13:28 45.70123 18.43187 37069 ft 465 kts 163°
2026-05-04 13:28 45.63917 18.45822 37069 ft 465 kts 163°
2026-05-04 13:29 45.57767 18.48431 37067 ft 465 kts 163°
2026-05-04 13:29 45.51540 18.51066 37073 ft 466 kts 163°
2026-05-04 13:30 45.45334 18.53688 37074 ft 466 kts 163°
2026-05-04 13:30 45.39154 18.56292 37076 ft 467 kts 163°
2026-05-04 13:31 45.32921 18.58913 37077 ft 467 kts 163°
2026-05-04 13:31 45.26706 18.61521 37076 ft 467 kts 163°
2026-05-04 13:32 45.20461 18.64135 37073 ft 468 kts 163°
2026-05-04 13:32 45.14256 18.66728 37073 ft 468 kts 163°
2026-05-04 13:33 45.08003 18.69336 37075 ft 469 kts 163°
2026-05-04 13:33 45.01722 18.71946 37077 ft 469 kts 164°
2026-05-04 13:34 44.95395 18.74024 37080 ft 470 kts 168°
2026-05-04 13:34 44.89005 18.75869 37076 ft 469 kts 169°
2026-05-04 13:35 44.79380 18.78651 37082 ft 470 kts 169°
2026-05-04 13:36 44.72981 18.80498 37086 ft 471 kts 169°
2026-05-04 13:36 44.66590 18.82341 37091 ft 471 kts 168°
2026-05-04 13:37 44.60187 18.84183 37096 ft 471 kts 169°
2026-05-04 13:37 44.53786 18.86022 37105 ft 471 kts 169°
2026-05-04 13:38 44.47367 18.87860 37104 ft 472 kts 169°
2026-05-04 13:38 44.40914 18.89705 37112 ft 471 kts 168°
2026-05-04 13:39 44.34510 18.91532 37115 ft 472 kts 168°
2026-05-04 13:39 44.28082 18.93362 37134 ft 473 kts 169°
2026-05-04 13:40 44.21651 18.95188 37143 ft 473 kts 169°
2026-05-04 13:40 44.15194 18.97018 37139 ft 473 kts 168°
2026-05-04 13:41 44.08759 18.98837 37149 ft 474 kts 169°
2026-05-04 13:41 44.02304 19.00658 37157 ft 474 kts 169°
2026-05-04 13:42 43.92606 19.03386 37169 ft 474 kts 168°
2026-05-04 13:42 43.86122 19.05206 37161 ft 474 kts 169°
2026-05-04 13:43 43.79681 19.07011 37149 ft 475 kts 169°
2026-05-04 13:43 43.73189 19.08826 37134 ft 475 kts 169°
2026-05-04 13:44 43.66727 19.10630 37135 ft 475 kts 169°
2026-05-04 13:44 43.60251 19.12432 37149 ft 476 kts 169°
2026-05-04 13:45 43.53850 19.14711 37163 ft 476 kts 162°
2026-05-04 13:45 43.47690 19.18059 37168 ft 477 kts 154°
2026-05-04 13:46 43.41775 19.22095 37166 ft 476 kts 152°
2026-05-04 13:46 43.35883 19.26135 37175 ft 476 kts 153°
2026-05-04 13:47 43.29923 19.30192 37176 ft 477 kts 153°
2026-05-04 13:47 43.23994 19.34211 37180 ft 478 kts 153°
2026-05-04 13:48 43.18043 19.38236 37178 ft 478 kts 153°
2026-05-04 13:48 43.12100 19.42245 37183 ft 478 kts 153°
2026-05-04 13:49 43.06157 19.46246 37174 ft 478 kts 153°
2026-05-04 13:49 43.00172 19.50265 37161 ft 478 kts 153°
2026-05-04 13:50 42.94199 19.54269 37162 ft 479 kts 153°
2026-05-04 13:50 42.88217 19.58267 37162 ft 481 kts 153°
2026-05-04 13:51 42.82232 19.62262 37170 ft 480 kts 153°
2026-05-04 13:51 42.79205 19.64280 36908 ft 481 kts 153°
2026-05-04 13:51 42.76225 19.66265 36611 ft 479 kts 153°
2026-05-04 13:52 42.70260 19.70228 36000 ft 475 kts 153°
2026-05-04 13:52 42.67298 19.72193 35511 ft 475 kts 153°
2026-05-04 13:52 42.64314 19.74174 34900 ft 477 kts 153°
2026-05-04 13:53 42.61354 19.76136 34219 ft 480 kts 153°
2026-05-04 13:53 42.58338 19.78131 33461 ft 482 kts 153°
2026-05-04 13:53 42.55354 19.80103 32902 ft 480 kts 153°
2026-05-04 13:54 42.49758 19.84716 31986 ft 468 kts 141°
2026-05-04 13:54 42.47258 19.87523 31541 ft 461 kts 134°
2026-05-04 13:54 42.43054 19.93839 30631 ft 448 kts 122°
2026-05-04 13:55 42.41232 19.97239 30195 ft 444 kts 121°
2026-05-04 13:55 42.37687 20.03982 29342 ft 437 kts 121°
2026-05-04 13:55 42.35935 20.07286 28908 ft 433 kts 121°
2026-05-04 13:56 42.34178 20.10578 28475 ft 430 kts 121°
2026-05-04 13:56 42.32438 20.13821 28047 ft 427 kts 121°
2026-05-04 13:56 42.28957 20.20283 27178 ft 421 kts 121°
2026-05-04 13:57 42.27246 20.23456 26746 ft 418 kts 121°
2026-05-04 13:57 42.25564 20.26572 26324 ft 415 kts 121°
2026-05-04 13:58 42.20525 20.35889 25058 ft 406 kts 121°
2026-05-04 13:58 42.17231 20.41959 24223 ft 399 kts 121°
2026-05-04 13:58 42.15609 20.44984 23789 ft 395 kts 117°
2026-05-04 13:59 42.14556 20.48272 23316 ft 377 kts 94°
2026-05-04 13:59 42.14519 20.51672 22896 ft 359 kts 73°
2026-05-04 13:59 42.16622 20.57446 22056 ft 339 kts 51°
2026-05-04 14:00 42.17924 20.60061 21644 ft 336 kts 51°
2026-05-04 14:00 42.20471 20.65284 20810 ft 332 kts 53°
2026-05-04 14:00 42.21715 20.67879 20396 ft 329 kts 53°
2026-05-04 14:01 42.22953 20.70459 19987 ft 327 kts 53°
2026-05-04 14:01 42.24160 20.72990 19584 ft 324 kts 53°
2026-05-04 14:01 42.26579 20.78068 18794 ft 319 kts 54°
2026-05-04 14:02 42.27779 20.80592 18401 ft 317 kts 54°
2026-05-04 14:02 42.28966 20.83088 18010 ft 315 kts 54°
2026-05-04 14:02 42.30130 20.85541 17622 ft 313 kts 54°
2026-05-04 14:02 42.31302 20.88012 17227 ft 311 kts 54°
2026-05-04 14:03 42.32468 20.90474 16811 ft 309 kts 54°
2026-05-04 14:03 42.33624 20.92909 16394 ft 308 kts 54°
2026-05-04 14:03 42.34768 20.95325 15999 ft 306 kts 54°
2026-05-04 14:03 42.35905 20.97733 15606 ft 304 kts 54°
2026-05-04 14:04 42.38170 21.02527 14784 ft 301 kts 54°
2026-05-04 14:04 42.39285 21.04889 14373 ft 299 kts 54°
2026-05-04 14:04 42.40401 21.07255 13961 ft 298 kts 55°
2026-05-04 14:05 42.42613 21.11947 13147 ft 294 kts 55°
2026-05-04 14:05 42.43706 21.14270 12779 ft 293 kts 55°
2026-05-04 14:05 42.44804 21.16606 12382 ft 292 kts 55°
2026-05-04 14:06 42.45885 21.18909 11984 ft 291 kts 56°
2026-05-04 14:06 42.46910 21.21237 11694 ft 286 kts 64°
2026-05-04 14:06 42.47240 21.23821 11524 ft 282 kts 91°
2026-05-04 14:06 42.46693 21.26339 11274 ft 284 kts 115°
2026-05-04 14:07 42.45398 21.28332 11032 ft 285 kts 138°
2026-05-04 14:07 42.43800 21.29933 10722 ft 282 kts 140°
2026-05-04 14:07 42.42229 21.31473 10439 ft 277 kts 140°
2026-05-04 14:07 42.40689 21.33000 10161 ft 273 kts 140°
2026-05-04 14:08 42.39177 21.34520 9890 ft 269 kts 139°
2026-05-04 14:08 42.37680 21.36005 9653 ft 264 kts 144°
2026-05-04 14:08 42.35984 21.36808 9387 ft 265 kts 177°
2026-05-04 14:08 42.34213 21.36275 9086 ft 266 kts 210°
2026-05-04 14:09 42.31815 21.32635 8505 ft 260 kts 236°
2026-05-04 14:09 42.30779 21.30653 8237 ft 258 kts 235°
2026-05-04 14:10 42.28812 21.26645 7673 ft 254 kts 256°
2026-05-04 14:10 42.28759 21.24348 7348 ft 247 kts 288°
2026-05-04 14:10 42.29567 21.22356 7036 ft 240 kts 314°
2026-05-04 14:10 42.30695 21.20722 6778 ft 239 kts 315°
2026-05-04 14:11 42.31827 21.19079 6538 ft 239 kts 314°
2026-05-04 14:11 42.34046 21.15765 5957 ft 237 kts 313°
2026-05-04 14:11 42.35149 21.14085 5606 ft 238 kts 313°
2026-05-04 14:12 42.36238 21.12421 5359 ft 233 kts 313°
2026-05-04 14:12 42.37274 21.10832 5220 ft 221 kts 313°
2026-05-04 14:12 42.39199 21.07876 4991 ft 198 kts 313°
2026-05-04 14:13 42.40116 21.06474 4877 ft 202 kts 313°
2026-05-04 14:13 42.41199 21.05302 4667 ft 201 kts 343°
2026-05-04 14:13 42.42554 21.04946 4469 ft 201 kts 358°
2026-05-04 14:13 42.43939 21.04876 4246 ft 196 kts
2026-05-04 14:14 42.45265 21.04806 4137 ft 188 kts 359°
2026-05-04 14:14 42.47795 21.04564 3601 ft 176 kts 358°
2026-05-04 14:14 42.48980 21.04436 3346 ft 162 kts 358°
2026-05-04 14:15 42.51090 21.04218 2852 ft 146 kts 357°
2026-05-04 14:15 42.53106 21.04036 2432 ft 144 kts 356°
2026-05-04 14:16 42.55114 21.03816 2003 ft 143 kts 353°
2026-05-04 14:16 42.56109 21.03710 1817 ft 142 kts 355°
2026-05-04 14:17 42.57488 21.03567 1801 ft 46 kts 355°
2026-05-04 14:17 42.57775 21.03518 1804 ft 31 kts 339°
2026-05-04 14:17 42.58007 21.03322 1807 ft 9 kts 289°
2026-05-04 14:18 42.57962 21.03275 1807 ft 10 kts 180°
2026-05-04 14:18 42.57798 21.03291 1805 ft 13 kts 176°
2026-05-04 14:19 42.57603 21.03292 1804 ft 13 kts 223°
2026-05-04 14:19 42.57532 21.03220 1804 ft 13 kts 178°
2026-05-04 14:19 42.57445 21.03230 1803 ft 9 kts 175°
2026-05-04 14:19 42.57396 21.03194 1803 ft 6 kts 262°
2026-05-04 14:20 42.57396 21.03147 1803 ft 2 kts 266°
2026-05-04 14:20 42.57396 21.03145 1803 ft 0 kts 266°